Location: Chimay
(50.0486°N, 4.3171°E)
Time: 15:50:20
(UTC+00:00)

Spot 2 Rocket - Pass Details

Date: 08 August 2020
Orbit: 756 x 773 km, 98.6° (Epoch: 18 September)

Event Time Altitude Azimuth Distance (km) Brightness Sun altitude
Exits shadow 20:11:23 10° 145° (SE) 2,348 5.4 -8.8°
Reaches altitude 10° 20:11:28 10° 145° (SE) 2,314 5.4 -8.8°
Maximum altitude 20:16:26 54° 69° (ENE) 934 3.8 -9.4°
Drops below altitude 10° 20:21:25 10° 353° (N) 2,323 6.7 -10.0°
Sets 20:23:46 0° 349° (N) 3,252 7.6 -10.3°
